AB5KT-1 Weather Reports


Display with metric or nautical units.
time (UTC)temp
F
wind
direction
speed
MPH
gust
MPH
rain 1hr
in
rain 24hr
in
rain mn
in
humidity
%
barometer
mb
20260505183324 82 117 3.0 8.0 0.00 0.00 0.00 72 1008.8
20260505182824 82 209 4.0 8.0 0.00 0.00 0.00 71 1008.9
20260505182324 82 123 4.0 11.0 0.00 0.00 0.00 71 1009.1
20260505181824 82 227 4.0 11.0 0.00 0.00 0.00 72 1009.1
20260505181324 82 183 5.0 11.0 0.00 0.00 0.00 73 1009.1
20260505180825 81 217 5.0 10.0 0.00 0.00 0.00 73 1009.1
20260505180325 81 167 5.0 11.0 0.00 0.00 0.00 75 1009.1
20260505175825 80 157 5.0 11.0 0.00 0.00 0.00 75 1009.1
20260505175324 80 126 5.0 10.0 0.00 0.00 0.00 74 1009.1
20260505174824 80 177 5.0 9.0 0.00 0.00 0.00 75 1009.2
20260505174324 79 219 5.0 11.0 0.00 0.00 0.00 76 1009.2
20260505173824 79 179 6.0 11.0 0.00 0.00 0.00 76 1009.3
20260505173323 79 173 5.0 11.0 0.00 0.00 0.00 76 1009.3
20260505172822 79 155 5.0 10.0 0.00 0.00 0.00 76 1009.3
20260505172322 78 176 6.0 10.0 0.00 0.00 0.00 77 1009.2
20260505171822 78 164 5.0 10.0 0.00 0.00 0.00 77 1009.3
20260505171322 77 108 6.0 10.0 0.00 0.00 0.00 78 1009.3
20260505170822 77 194 5.0 10.0 0.00 0.00 0.00 79 1009.3
20260505170323 77 143 5.0 9.0 0.00 0.00 0.00 79 1009.3
20260505165822 76 207 4.0 9.0 0.00 0.00 0.00 80 1009.3
20260505165322 76 187 4.0 9.0 0.00 0.00 0.00 80 1009.3
20260505164822 76 113 4.0 9.0 0.00 0.00 0.00 80 1009.3
20260505164322 76 196 5.0 11.0 0.00 0.00 0.00 81 1009.3
20260505163820 75 200 5.0 11.0 0.00 0.00 0.00 82 1009.3
20260505163320 75 160 5.0 10.0 0.00 0.00 0.00 82 1009.3
20260505162821 74 134 3.0 8.0 0.00 0.00 0.00 83 1009.3
20260505162324 74 188 4.0 11.0 0.00 0.00 0.00 84 1009.4
20260505162320 74 176 3.0 11.0 0.00 0.00 0.00 84 1009.3
20260505161320 74 176 4.0 8.0 0.00 0.00 0.00 84 1009.4
20260505160820 73 157 4.0 8.0 0.00 0.00 0.00 85 1009.4
20260505160325 73 197 4.0 7.0 0.00 0.00 0.00 86 1009.5
20260505160321 73 190 3.0 8.0 0.00 0.00 0.00 85 1009.5
20260505153318 72 174 3.0 8.0 0.00 0.00 0.00 88 1009.5
20260505152818 71 162 3.0 8.0 0.00 0.00 0.00 88 1009.6
20260505152322 71 182 2.0 8.0 0.00 0.00 0.00 88 1009.6
20260505152318 71 190 2.0 7.0 0.00 0.00 0.00 88 1009.6
20260505151923 71 191 3.0 8.0 0.00 0.00 0.00 88 1009.4
20260505150818 71 162 5.0 9.0 0.00 0.00 0.00 88 1009.4
20260505150320 71 150 4.0 9.0 0.00 0.00 0.00 89 1009.3
20260505150316 71 217 5.0 9.0 0.00 0.00 0.00 88 1009.3
20260505140316 70 160 2.0 6.0 0.00 0.00 0.00 89 1009.4
20260505130311 69 190 3.0 7.0 0.00 0.00 0.00 90 1009.3
20260505124810 69 161 4.0 11.0 0.00 0.00 0.00 89 1009.3
20260505124311 69 153 4.0 11.0 0.00 0.00 0.00 89 1009.2
20260505123809 69 155 4.0 9.0 0.00 0.00 0.00 90 1009.0
20260505123310 69 188 4.0 8.0 0.00 0.00 0.00 90 1009.0
20260505122809 69 140 4.0 13.0 0.00 0.00 0.00 90 1008.9
20260505122310 69 162 4.0 13.0 0.00 0.00 0.00 90 1008.8
20260505121810 68 161 4.0 11.0 0.00 0.00 0.00 90 1008.8
20260505121309 68 184 4.0 8.0 0.00 0.00 0.00 90 1008.8
20260505120810 68 141 4.0 8.0 0.00 0.00 0.00 90 1008.7
20260505120311 68 148 4.0 10.0 0.00 0.00 0.00 90 1008.7
20260505115810 68 123 4.0 10.0 0.00 0.00 0.00 90 1008.6
20260505115307 68 187 4.0 10.0 0.00 0.00 0.00 90 1008.4
20260505114807 68 139 3.0 10.0 0.00 0.00 0.00 90 1008.4
20260505114308 68 147 3.0 11.0 0.00 0.00 0.00 90 1008.4
20260505113810 68 167 4.0 11.0 0.00 0.00 0.00 90 1008.4
20260505113310 68 139 3.0 8.0 0.00 0.00 0.00 90 1008.4
20260505112804 68 141 2.0 8.0 0.00 0.00 0.00 90 1008.3
20260505112305 68 165 2.0 7.0 0.00 0.00 0.00 90 1008.3
20260505111803 68 155 3.0 8.0 0.00 0.00 0.00 90 1008.4
20260505111302 68 171 3.0 8.0 0.00 0.00 0.00 90 1008.3
20260505110801 67 153 2.0 6.0 0.00 0.00 0.00 90 1008.3
20260505110300 67 164 2.0 7.0 0.00 0.00 0.00 90 1008.3
20260505101754 67 163 1.0 6.0 0.00 0.00 0.00 90 1008.3
20260505101258 67 161 2.0 6.0 0.00 0.00 0.00 90 1008.3
20260505101254 67 184 2.0 6.0 0.00 0.00 0.00 90 1008.3
20260505100254 67 157 2.0 5.0 0.00 0.00 0.00 90 1008.4
20260505095753 67 137 2.0 6.0 0.00 0.00 0.00 90 1008.4
20260505095258 68 163 2.0 5.0 0.00 0.00 0.00 89 1008.6
20260505095254 67 169 1.0 6.0 0.00 0.00 0.00 89 1008.4
20260505094254 68 159 2.0 6.0 0.00 0.00 0.00 89 1008.7
20260505093754 68 117 2.0 6.0 0.00 0.00 0.00 89 1008.7
20260505093254 68 165 2.0 6.0 0.00 0.00 0.00 89 1008.6
20260505092754 68 141 2.0 7.0 0.00 0.00 0.00 89 1008.7
20260505092253 68 152 2.0 7.0 0.00 0.00 0.00 89 1008.8
20260505091754 68 157 2.0 7.0 0.00 0.00 0.00 89 1008.7
20260505091254 68 138 2.0 8.0 0.00 0.00 0.00 89 1008.7
20260505090753 68 161 3.0 8.0 0.00 0.00 0.00 89 1008.7
20260505090258 68 119 2.0 7.0 0.00 0.00 0.00 89 1008.7
20260505090254 68 139 2.0 7.0 0.00 0.00 0.00 89 1008.7
20260505085256 68 193 3.0 8.0 0.00 0.00 0.00 88 1008.7
20260505085252 68 190 3.0 8.0 0.00 0.00 0.00 88 1008.8
20260505084252 68 115 3.0 8.0 0.00 0.00 0.00 88 1008.7
20260505083750 68 155 2.0 8.0 0.00 0.00 0.00 88 1008.7
20260505083250 68 121 2.0 8.0 0.00 0.00 0.00 88 1008.7
20260505082748 68 118 3.0 7.0 0.00 0.00 0.00 88 1008.9
20260505082247 68 154 3.0 7.0 0.00 0.00 0.00 88 1009.0
20260505081748 69 159 2.0 7.0 0.00 0.00 0.00 88 1009.2
20260505081250 68 167 2.0 7.0 0.00 0.00 0.00 88 1009.3
20260505081246 68 134 2.0 7.0 0.00 0.00 0.00 88 1009.4
20260505080243 68 148 2.0 7.0 0.00 0.00 0.00 88 1009.3
20260505075744 68 194 2.0 6.0 0.00 0.00 0.00 88 1009.3
20260505075242 68 132 2.0 6.0 0.00 0.00 0.00 88 1009.4
20260505074742 68 166 2.0 6.0 0.00 0.00 0.00 88 1009.5
20260505074242 68 142 1.0 6.0 0.00 0.00 0.00 88 1009.5
20260505073741 68 170 1.0 5.0 0.00 0.00 0.00 88 1009.6
20260505073243 68 157 1.0 5.0 0.00 0.00 0.00 87 1009.6
20260505073239 68 144 1.0 5.0 0.00 0.00 0.00 87 1009.8
20260505072237 69 144 1.0 5.0 0.00 0.00 0.00 87 1009.7
20260505071740 69 145 3.0 8.0 0.00 0.00 0.00 87 1009.9
20260505071736 69 112 2.0 6.0 0.00 0.00 0.00 87 1009.8
20260505070733 69 155 3.0 8.0 0.00 0.00 0.00 87 1009.9
20260505070234 69 140 3.0 8.0 0.00 0.00 0.00 87 1010.1
20260505065732 69 152 3.0 8.0 0.00 0.00 0.00 87 1010.1
20260505065230 69 106 4.0 9.0 0.00 0.00 0.00 87 1010.1
20260505064734 69 148 5.0 9.0 0.00 0.00 0.00 86 1010.2
20260505064730 69 149 4.0 9.0 0.00 0.00 0.00 86 1010.2
20260505063730 69 132 4.0 9.0 0.00 0.00 0.00 86 1010.3
20260505063229 69 174 4.0 11.0 0.00 0.00 0.00 86 1010.3
20260505062727 69 117 4.0 11.0 0.00 0.00 0.00 86 1010.3
20260505062230 69 161 4.0 10.0 0.00 0.00 0.00 86 1010.4
20260505062226 70 164 4.0 10.0 0.00 0.00 0.00 85 1010.4
20260505061230 70 163 3.0 10.0 0.00 0.00 0.00 85 1010.4
20260505061226 70 134 4.0 10.0 0.00 0.00 0.00 85 1010.4
20260505060830 70 153 2.0 8.0 0.00 0.00 0.00 85 1010.5
20260505055724 70 157 3.0 8.0 0.00 0.00 0.00 85 1010.5
20260505055226 70 124 3.0 7.0 0.00 0.00 0.00 85 1010.6
20260505055222 70 157 3.0 7.0 0.00 0.00 0.00 85 1010.6
20260505054221 70 130 3.0 9.0 0.00 0.00 0.00 85 1010.7
20260505053720 70 138 2.0 9.0 0.00 0.00 0.00 84 1010.7
20260505053218 70 162 2.0 7.0 0.00 0.00 0.00 84 1010.6
20260505052718 70 175 2.0 7.0 0.00 0.00 0.00 84 1010.7
20260505052216 70 143 2.0 7.0 0.00 0.00 0.00 84 1010.6
20260505051715 71 144 2.0 8.0 0.00 0.00 0.00 84 1010.5
20260505051216 71 180 2.0 9.0 0.00 0.00 0.00 83 1010.5
20260505050716 71 122 2.0 9.0 0.00 0.00 0.00 83 1010.5
20260505050216 71 208 1.0 7.0 0.00 0.00 0.00 83 1010.6
20260505041716 72 102 2.0 8.0 0.00 0.00 0.00 80 1010.5
20260505041711 72 189 1.0 6.0 0.00 0.00 0.00 80 1010.4
20260505041320 72 114 2.0 8.0 0.00 0.00 0.00 79 1010.5
20260505041316 72 130 2.0 8.0 0.00 0.00 0.00 79 1010.5
20260505035713 73 130 1.0 4.0 0.00 0.00 0.00 78 1010.5
20260505035709 72 109 1.0 4.0 0.00 0.00 0.00 79 1010.5
20260505035314 73 132 1.0 7.0 0.00 0.00 0.00 78 1010.4
20260505034210 73 151 2.0 7.0 0.00 0.00 0.00 78 1010.4
20260505033710 73 117 1.0 7.0 0.00 0.00 0.00 77 1010.3
20260505033210 73 153 1.0 7.0 0.00 0.00 0.00 77 1010.4
20260505032710 73 128 1.0 5.0 0.00 0.00 0.00 77 1010.3
20260505032210 73 141 1.0 5.0 0.00 0.00 0.00 76 1010.3
20260505031710 73 130 1.0 5.0 0.00 0.00 0.00 76 1010.2
20260505031210 74 134 1.0 5.0 0.00 0.00 0.00 76 1010.2
20260505030709 74 115 0.0 4.0 0.00 0.00 0.00 75 1010.2
20260505030210 74 154 0.0 4.0 0.00 0.00 0.00 74 1010.3
20260505025710 74 133 0.0 2.0 0.00 0.00 0.00 74 1010.3
20260505025214 75 118 1.0 6.0 0.00 0.00 0.00 73 1010.4
20260505025209 74 155 0.0 4.0 0.00 0.00 0.00 73 1010.3
20260505024214 75 131 0.0 2.0 0.00 0.00 0.00 72 1010.3
20260505024210 75 123 1.0 6.0 0.00 0.00 0.00 73 1010.4
20260505023208 75 129 0.0 1.0 0.00 0.00 0.00 71 1010.3
20260505022707 75 134 0.0 1.0 0.00 0.00 0.00 71 1010.2
20260505022208 75 134 0.0 2.0 0.00 0.00 0.00 71 1010.1
20260505021708 76 134 0.0 2.0 0.00 0.00 0.00 70 1010.1
20260505021208 76 139 0.0 2.0 0.00 0.00 0.00 70 1010.2
20260505020708 76 138 1.0 4.0 0.00 0.00 0.00 70 1010.2
20260505020208 76 159 1.0 4.0 0.00 0.00 0.00 69 1010.0
20260505015708 76 153 1.0 4.0 0.00 0.00 0.00 69 1009.8
20260505015212 76 171 1.0 5.0 0.00 0.00 0.00 68 1009.7
20260505015208 76 155 1.0 5.0 0.00 0.00 0.00 69 1009.7
20260505014206 77 144 1.0 5.0 0.00 0.00 0.00 68 1009.8
20260505013706 77 150 2.0 5.0 0.00 0.00 0.00 68 1009.9
20260505013207 77 165 2.0 6.0 0.00 0.00 0.00 67 1009.8
20260505012706 77 119 3.0 6.0 0.00 0.00 0.00 67 1009.8
20260505012206 78 157 3.0 6.0 0.00 0.00 0.00 66 1009.7
20260505011710 78 175 2.0 8.0 0.00 0.00 0.00 65 1009.7
20260505011705 78 139 2.0 6.0 0.00 0.00 0.00 66 1009.7
20260505010705 79 173 3.0 8.0 0.00 0.00 0.00 64 1009.7
20260505010204 79 139 4.0 8.0 0.00 0.00 0.00 64 1009.7
20260505005705 79 176 4.0 9.0 0.00 0.00 0.00 63 1009.7
20260505005204 80 142 3.0 9.0 0.00 0.00 0.00 63 1009.7
20260505004704 80 136 4.0 9.0 0.00 0.00 0.00 62 1009.7
20260505004204 80 150 4.0 10.0 0.00 0.00 0.00 61 1009.6
20260505003708 81 155 4.0 12.0 0.00 0.00 0.00 60 1009.4
20260505003704 80 157 4.0 12.0 0.00 0.00 0.00 61 1009.6
20260505002706 81 138 5.0 10.0 0.00 0.00 0.00 61 1009.3
20260505002702 81 161 4.0 10.0 0.00 0.00 0.00 61 1009.4
20260505001700 81 148 6.0 13.0 0.00 0.00 0.00 60 1009.5
20260505001204 82 148 5.0 12.0 0.00 0.00 0.00 59 1009.6
20260505001200 81 136 6.0 13.0 0.00 0.00 0.00 59 1009.6
20260505000200 82 170 4.0 9.0 0.00 0.00 0.00 60 1009.6
20260504235704 82 135 5.0 13.0 0.00 0.00 0.00 59 1009.6
20260504235700 82 164 4.0 10.0 0.00 0.00 0.00 59 1009.7
20260504234704 83 166 5.0 13.0 0.00 0.00 0.00 57 1009.9
20260504234700 82 145 6.0 13.0 0.00 0.00 0.00 59 1009.8
20260504234305 83 57 4.0 13.0 0.00 0.00 0.00 57 1009.9
20260504233202 83 110 4.0 13.0 0.00 0.00 0.00 58 1010.0
20260504233158 82 157 4.0 12.0 0.00 0.00 0.00 58 1010.0
20260504232158 82 132 4.0 11.0 0.00 0.00 0.00 59 1009.9
20260504231702 82 105 5.0 11.0 0.00 0.00 0.00 58 1010.1
20260504231658 82 160 5.0 11.0 0.00 0.00 0.00 58 1010.0
20260504230658 83 169 4.0 10.0 0.00 0.00 0.00 58 1010.2
20260504230158 83 126 4.0 10.0 0.00 0.00 0.00 58 1010.2
20260504225658 82 227 4.0 11.0 0.00 0.00 0.00 58 1010.2
20260504225158 82 132 5.0 11.0 0.00 0.00 0.00 59 1010.4
20260504224700 82 186 5.0 10.0 0.00 0.00 0.00 59 1010.5
20260504224655 82 116 4.0 10.0 0.00 0.00 0.00 59 1010.6
20260504223653 83 137 3.0 10.0 0.00 0.00 0.00 58 1010.7
20260504223152 82 152 5.0 11.0 0.00 0.00 0.00 59 1010.7
20260504222652 82 159 7.0 13.0 0.00 0.00 0.00 59 1010.7
20260504222152 82 234 7.0 13.0 0.00 0.00 0.00 58 1010.7
20260504221652 82 119 7.0 14.0 0.00 0.00 0.00 59 1010.6
20260504221153 81 142 7.0 14.0 0.00 0.00 0.00 59 1010.6
20260504220652 81 159 6.0 13.0 0.00 0.00 0.00 59 1010.7
20260504220152 82 179 6.0 11.0 0.00 0.00 0.00 59 1010.8
20260504215652 81 182 6.0 11.0 0.00 0.00 0.00 60 1010.7
20260504215152 81 121 5.0 12.0 0.00 0.00 0.00 61 1010.7
20260504214650 81 163 5.0 12.0 0.00 0.00 0.00 59 1010.7
20260504214150 81 144 6.0 19.0 0.00 0.00 0.00 60 1010.7
20260504213648 81 166 6.0 19.0 0.00 0.00 0.00 59 1010.9
20260504213148 81 179 6.0 10.0 0.00 0.00 0.00 59 1011.0
20260504212649 81 145 5.0 10.0 0.00 0.00 0.00 61 1011.0
20260504212148 80 190 5.0 11.0 0.00 0.00 0.00 62 1011.1
20260504211648 80 231 6.0 11.0 0.00 0.00 0.00 61 1011.3
20260504211147 80 169 5.0 11.0 0.00 0.00 0.00 63 1011.4
20260504210646 80 194 5.0 12.0 0.00 0.00 0.00 62 1011.6
20260504210149 80 123 5.0 11.0 0.00 0.00 0.00 62 1011.8
20260504210145 80 22 5.0 12.0 0.00 0.00 0.00 61 1011.5
20260504205143 79 147 6.0 15.0 0.00 0.00 0.00 63 1012.0
20260504204642 79 135 7.0 15.0 0.00 0.00 0.00 63 1011.8
20260504204142 79 167 7.0 14.0 0.00 0.00 0.00 64 1012.0
20260504203642 79 193 6.0 14.0 0.00 0.00 0.00 63 1012.1
20260504203142 79 136 5.0 12.0 0.00 0.00 0.00 64 1012.2
20260504202640 79 142 6.0 14.0 0.00 0.00 0.00 63 1012.3
20260504202139 79 138 6.0 14.0 0.00 0.00 0.00 62 1012.4
20260504201638 79 165 7.0 12.0 0.00 0.00 0.00 62 1012.5
20260504201139 79 147 6.0 15.0 0.00 0.00 0.00 62 1012.4
20260504200638 79 196 6.0 15.0 0.00 0.00 0.00 63 1012.5
20260504200136 78 242 6.0 13.0 0.00 0.00 0.00 65 1012.6
20260504195637 78 196 7.0 12.0 0.00 0.00 0.00 65 1012.7
20260504195136 79 178 6.0 12.0 0.00 0.00 0.00 64 1012.8
20260504194636 79 161 6.0 11.0 0.00 0.00 0.00 63 1012.9
20260504194136 79 161 6.0 13.0 0.00 0.00 0.00 63 1012.9
20260504193640 78 183 6.0 12.0 0.00 0.00 0.00 65 1013.0
20260504193636 78 186 6.0 13.0 0.00 0.00 0.00 65 1012.9
20260504192636 78 193 6.0 12.0 0.00 0.00 0.00 64 1013.0
20260504192141 78 150 6.0 13.0 0.00 0.00 0.00 64 1013.1
20260504192137 78 167 5.0 11.0 0.00 0.00 0.00 65 1013.1
20260504191136 78 167 7.0 14.0 0.00 0.00 0.00 63 1013.2
20260504190637 79 171 6.0 14.0 0.00 0.00 0.00 63 1013.1
20260504190136 78 217 6.0 14.0 0.00 0.00 0.00 63 1013.1
20260504185641 78 168 7.0 16.0 0.00 0.00 0.00 65 1013.2
20260504185637 78 152 7.0 16.0 0.00 0.00 0.00 64 1013.3
20260504184634 78 200 6.0 14.0 0.00 0.00 0.00 65 1013.2
20260504184132 78 157 7.0 15.0 0.00 0.00 0.00 66 1013.4
20260504183635 77 233 7.0 16.0 0.00 0.00 0.00 66 1013.7
20260504183631 77 176 7.0 15.0 0.00 0.00 0.00 66 1013.5